Change the Weather History Date:

Monday, July 22, 2013

  Actual Average Record
Temperature  
Mean Temperature 81 °F 75 °F  
Max Temperature 98 °F 89 °F 105 °F (1963)
Min Temperature 64 °F 61 °F 50 °F (1958)
Cooling Degree Days 16    
Growing Degree Days 30 (Base 50)    
Moisture  
Dew Point 62 °F    
Average Humidity 71    
Maximum Humidity 100    
Minimum Humidity 16    
Precipitation  
Precipitation 0.00 in 0.09 in 2.08 in (1951)
Month to date precipitation 0.66 2.37  
Year to date precipitation 8.25 10.98  
Sea Level Pressure  
Sea Level Pressure 29.81 in    
Wind  
Wind Speed 10 mph (SE)    
Max Wind Speed 17 mph    
Max Gust Speed 22 mph    
Visibility 6 miles    
Events      
T = Trace of Precipitation, MM = Missing Value Source: NWS Daily Summary

Daily Weather History Graph

Daily Weather History Graph

Search for Another Location

Airport or City:

Trip Planner

Search our weather history database for the weather conditions in past years. The results will help you decide how hot, cold, wet, or windy it might be!

Date:

Astronomy

Jul. 22, 2013 Rise Set
Actual Time 5:40 AM MDT 8:09 PM MDT
Civil Twilight 5:10 AM MDT 8:40 PM MDT
Nautical Twilight 4:31 AM MDT 9:18 PM MDT
Astronomical Twilight 3:49 AM MDT 10:00 PM MDT
Moon 7:58 PM MDT (7/22) 5:39 AM MDT (7/22)
Length of Visible Light 15h 30m
Length of Day
14h 28m
Full, 100% of the Moon is Illuminated
Jul 22
Full
Jul 22
Full
Jul 29
Last Quarter
Aug 6
New
Aug 14
First Quarter

Hourly Weather History & Observations

Time (MDT) Temp. Heat Index Dew Point Humidity Pressure Visibility Wind Dir Wind Speed Gust Speed Precip Events Conditions
12:53 AM 70.0 °F - 64.0 °F 81% 29.75 in 10.0 mi SSE 11.5 mph - N/A   Clear
1:53 AM 68.0 °F - 64.0 °F 87% 29.74 in 10.0 mi SSE 9.2 mph - N/A   Clear
2:53 AM 68.0 °F - 64.9 °F 90% 29.72 in 7.0 mi SSE 10.4 mph - N/A   Clear
3:53 AM 66.9 °F - 64.9 °F 93% 29.71 in 4.0 mi SSE 10.4 mph - N/A   Clear
4:41 AM 66.2 °F - 64.4 °F 94% 29.89 in 2.0 mi South 9.2 mph - N/A   Clear
4:47 AM 64.4 °F - 64.4 °F 100% 29.89 in 1.2 mi South 8.1 mph - N/A   Partly Cloudy
4:53 AM 64.9 °F - 64.0 °F 97% 29.72 in 1.2 mi SSW 5.8 mph - N/A   Partly Cloudy
5:05 AM 64.4 °F - 62.6 °F 94% 29.89 in 2.5 mi South 6.9 mph - N/A   Partly Cloudy
5:12 AM 64.4 °F - 62.6 °F 94% 29.90 in 3.0 mi South 6.9 mph - N/A   Partly Cloudy
5:24 AM 64.4 °F - 62.6 °F 94% 29.90 in 2.5 mi ESE 4.6 mph - N/A   Clear
5:27 AM 64.4 °F - 62.6 °F 94% 29.91 in 1.8 mi East 6.9 mph - N/A   Partly Cloudy
5:31 AM 64.4 °F - 62.6 °F 94% 29.91 in 0.8 mi ENE 12.7 mph - N/A   Mist
5:50 AM 64.4 °F - 64.4 °F 100% 29.93 in 2.0 mi NE 12.7 mph - N/A   Mostly Cloudy
5:53 AM 64.9 °F - 64.0 °F 97% 29.75 in 2.0 mi NE 11.5 mph - N/A   Mostly Cloudy
5:59 AM 66.2 °F - 64.4 °F 94% 29.93 in 0.8 mi East 5.8 mph - N/A   Mist
6:53 AM 68.0 °F - 66.9 °F 96% 29.76 in 0.8 mi ESE 13.8 mph - N/A   Overcast
7:00 AM 68.0 °F - 66.2 °F 94% 29.94 in 1.5 mi ESE 11.5 mph - N/A   Overcast
7:12 AM 68.0 °F - 66.2 °F 94% 29.94 in 3.0 mi ESE 15.0 mph 21.9 mph N/A   Overcast
7:48 AM 69.8 °F - 66.2 °F 88% 29.96 in 6.0 mi SE 15.0 mph 21.9 mph N/A   Mostly Cloudy
7:53 AM 70.0 °F - 66.9 °F 90% 29.79 in 7.0 mi SE 12.7 mph - N/A   Mostly Cloudy
8:04 AM 71.6 °F - 66.2 °F 83% 29.96 in 8.0 mi SE 17.3 mph 21.9 mph N/A   Scattered Clouds
8:53 AM 75.9 °F - 66.9 °F 74% 29.79 in 10.0 mi SE 13.8 mph - N/A   Clear
9:53 AM 79.0 °F - 66.0 °F 64% 29.79 in 10.0 mi SSE 16.1 mph - N/A   Clear
10:53 AM 82.0 °F 83.4 °F 64.0 °F 54% 29.79 in 10.0 mi SSE 11.5 mph - N/A   Clear
11:53 AM 86.0 °F 86.1 °F 61.0 °F 43% 29.79 in 10.0 mi ESE 4.6 mph - N/A   Clear
12:53 PM 88.0 °F 87.9 °F 61.0 °F 40% 29.78 in 10.0 mi South 4.6 mph - N/A   Clear
1:53 PM 91.0 °F 90.2 °F 59.0 °F 34% 29.76 in 10.0 mi Calm Calm - N/A   Clear
2:53 PM 93.9 °F 93.2 °F 59.0 °F 31% 29.75 in 10.0 mi Variable 4.6 mph - N/A   Clear
3:53 PM 95.0 °F 92.5 °F 53.1 °F 24% 29.73 in 10.0 mi South 4.6 mph - N/A   Clear
4:53 PM 97.0 °F - 48.9 °F 19% 29.73 in 10.0 mi Calm Calm - N/A   Clear
5:53 PM 97.0 °F - 43.0 °F 16% 29.72 in 10.0 mi North 4.6 mph - N/A   Clear
6:53 PM 91.0 °F 90.0 °F 57.9 °F 33% 29.73 in 10.0 mi ESE 11.5 mph - N/A   Clear
7:53 PM 86.0 °F 85.0 °F 57.9 °F 38% 29.75 in 10.0 mi ESE 13.8 mph 17.3 mph N/A   Clear
8:53 PM 82.0 °F 82.0 °F 57.9 °F 44% 29.76 in 10.0 mi East 12.7 mph - N/A   Clear
9:53 PM 78.1 °F - 55.9 °F 46% 29.77 in 10.0 mi ESE 10.4 mph - N/A   Clear
10:53 PM 72.0 °F - 55.9 °F 57% 29.78 in 10.0 mi SE 11.5 mph - N/A   Clear
11:53 PM 69.1 °F - 54.0 °F 58% 29.78 in 10.0 mi SSE 11.5 mph - N/A   Clear